Location: Corona
(40.7470°N, 73.8601°W)
Time: 15:59:54
(UTC+00:00)

Cosmos 1190 Rocket - Pass Details

Date: 22 September 2019
Orbit: 757 x 780 km, 74.1° (Epoch: 21 October)

Event Time Altitude Azimuth Distance (km) Brightness Sun altitude
Rises 23:35:59 0° 347° (NNW) 3,264 7.6 -9.0°
Reaches altitude 10° 23:38:31 10° 354° (N) 2,330 6.7 -9.4°
Maximum altitude 23:43:31 41° 65° (ENE) 1,102 4.5 -10.4°
Drops below altitude 10° 23:48:27 10° 136° (SE) 2,301 6.0 -11.3°
Enters shadow 23:48:50 - 137° (SE) 2,437 6.1 -11.4°
